| time (UTC) | temp F | wind direction | speed MPH | gust MPH | rain 1hr in | rain 24hr in | rain mn in | humidity % | barometer mb |
| 20260508051530 | 54 | 299 | 0.0 | 2.0 | 0.00 | 0.21 | 0.00 | 67 | 1002.0 |
| 20260508050041 | 53 | 299 | 0.0 | 1.0 | 0.00 | 0.21 | 0.00 | 67 | 1001.9 |
| 20260508044510 | 54 | 299 | 0.0 | 3.0 | 0.00 | 0.21 | 0.00 | 64 | 1001.8 |
| 20260508043044 | 54 | 299 | 0.0 | 0.0 | 0.00 | 0.21 | 0.00 | 64 | 1001.8 |
| 20260508041505 | 53 | 299 | 0.0 | 0.0 | 0.00 | 0.21 | 0.00 | 64 | 1001.8 |
| 20260508040019 | 53 | 299 | 0.0 | 0.0 | 0.00 | 0.21 | 0.00 | 70 | 1001.8 |
| 20260508034549 | 52 | 299 | 0.0 | 0.0 | 0.00 | 0.21 | 0.21 | 70 | 1001.4 |
| 20260508033005 | 52 | 299 | 0.0 | 0.0 | 0.00 | 0.21 | 0.21 | 69 | 1001.4 |
| 20260508031523 | 52 | 299 | 0.0 | 0.0 | 0.00 | 0.21 | 0.21 | 69 | 1001.4 |
| 20260508030105 | 52 | 299 | 0.0 | 0.0 | 0.00 | 0.21 | 0.21 | 68 | 1001.5 |
| 20260508024538 | 52 | 299 | 0.0 | 0.0 | 0.00 | 0.23 | 0.21 | 66 | 1001.5 |
| 20260508023002 | 52 | 299 | 0.0 | 0.0 | 0.00 | 0.23 | 0.21 | 65 | 1001.5 |
| 20260508021526 | 52 | 299 | 0.0 | 0.0 | 0.00 | 0.23 | 0.21 | 63 | 1001.4 |
| 20260508020049 | 52 | 299 | 0.0 | 0.0 | 0.00 | 0.23 | 0.21 | 61 | 1001.4 |
| 20260508014511 | 53 | 299 | 0.0 | 0.0 | 0.00 | 0.35 | 0.21 | 60 | 1001.3 |
| 20260508013037 | 53 | 299 | 0.0 | 0.0 | 0.00 | 0.35 | 0.21 | 59 | 1001.2 |
| 20260508011545 | 54 | 299 | 0.0 | 0.0 | 0.00 | 0.35 | 0.21 | 57 | 1001.0 |
| 20260508010010 | 55 | 299 | 0.0 | 0.0 | 0.00 | 0.35 | 0.21 | 54 | 1001.0 |
| 20260508004531 | 56 | 299 | 0.0 | 0.0 | 0.00 | 0.35 | 0.21 | 49 | 1001.1 |
| 20260508003100 | 58 | 299 | 0.0 | 0.0 | 0.00 | 0.35 | 0.21 | 46 | 1000.8 |
| 20260508001517 | 60 | 299 | 0.0 | 0.0 | 0.00 | 0.35 | 0.21 | 43 | 1000.7 |
| 20260508000048 | 61 | 299 | 0.0 | 3.0 | 0.00 | 0.35 | 0.21 | 41 | 1000.5 |
| 20260507234520 | 62 | 294 | 0.0 | 3.0 | 0.00 | 0.35 | 0.21 | 39 | 1000.5 |
| 20260507233040 | 63 | 295 | 1.0 | 5.0 | 0.00 | 0.35 | 0.21 | 38 | 1000.4 |
| 20260507231606 | 64 | 292 | 3.0 | 8.0 | 0.00 | 0.35 | 0.21 | 36 | 1000.4 |
| 20260507230050 | 65 | 320 | 1.0 | 7.0 | 0.00 | 0.35 | 0.21 | 35 | 1000.2 |
| 20260507224508 | 65 | 294 | 3.0 | 11.0 | 0.00 | 0.35 | 0.21 | 35 | 1000.1 |
| 20260507223041 | 65 | 280 | 1.0 | 5.0 | 0.00 | 0.35 | 0.21 | 35 | 1000.0 |
| 20260507221515 | 65 | 331 | 2.0 | 10.0 | 0.00 | 0.35 | 0.21 | 35 | 1000.2 |
| 20260507220027 | 65 | 287 | 3.0 | 8.0 | 0.00 | 0.35 | 0.21 | 35 | 1000.2 |
| 20260507214601 | 66 | 293 | 3.0 | 11.0 | 0.00 | 0.35 | 0.21 | 33 | 1000.2 |
| 20260507213028 | 66 | 126 | 1.0 | 5.0 | 0.00 | 0.35 | 0.21 | 35 | 1000.3 |
| 20260507211548 | 66 | 312 | 2.0 | 6.0 | 0.00 | 0.35 | 0.21 | 36 | 1000.2 |
| 20260507210006 | 66 | 324 | 5.0 | 11.0 | 0.00 | 0.35 | 0.21 | 34 | 1000.2 |
| 20260507204512 | 65 | 315 | 3.0 | 11.0 | 0.00 | 0.35 | 0.21 | 37 | 1000.1 |
| 20260507203051 | 65 | 286 | 2.0 | 11.0 | 0.00 | 0.35 | 0.21 | 36 | 1000.1 |
| 20260507201541 | 65 | 250 | 1.0 | 4.0 | 0.00 | 0.35 | 0.21 | 35 | 1000.2 |
| 20260507200020 | 65 | 271 | 3.0 | 8.0 | 0.00 | 0.35 | 0.21 | 39 | 1000.4 |
| 20260507194538 | 64 | 319 | 5.0 | 11.0 | 0.00 | 0.35 | 0.21 | 36 | 1000.5 |
| 20260507193055 | 64 | 301 | 2.0 | 5.0 | 0.00 | 0.35 | 0.21 | 40 | 1000.7 |
| 20260507191508 | 64 | 301 | 4.0 | 9.0 | 0.00 | 0.35 | 0.21 | 38 | 1001.0 |
| 20260507190023 | 63 | 294 | 4.0 | 15.0 | 0.00 | 0.35 | 0.21 | 38 | 1001.1 |
| 20260507184555 | 64 | 301 | 1.0 | 6.0 | 0.00 | 0.35 | 0.21 | 43 | 1001.1 |
| 20260507183027 | 63 | 15 | 1.0 | 12.0 | 0.00 | 0.35 | 0.21 | 44 | 1001.3 |
| 20260507181504 | 62 | 236 | 2.0 | 10.0 | 0.00 | 0.35 | 0.21 | 40 | 1001.5 |
| 20260507180034 | 62 | 312 | 4.0 | 9.0 | 0.00 | 0.35 | 0.21 | 40 | 1001.6 |
| 20260507174504 | 60 | 320 | 3.0 | 13.0 | 0.00 | 0.36 | 0.21 | 44 | 1001.8 |
| 20260507173010 | 61 | 24 | 3.0 | 7.0 | 0.00 | 0.36 | 0.21 | 42 | 1002.1 |
| 20260507171615 | 60 | 105 | 3.0 | 9.0 | 0.00 | 0.36 | 0.21 | 43 | 1002.3 |
| 20260507170010 | 61 | 280 | 3.0 | 14.0 | 0.00 | 0.36 | 0.21 | 44 | 1002.7 |
| 20260507164526 | 61 | 270 | 1.0 | 10.0 | 0.00 | 0.39 | 0.21 | 46 | 1002.8 |
| 20260507163033 | 60 | 304 | 4.0 | 11.0 | 0.00 | 0.39 | 0.21 | 46 | 1003.0 |
| 20260507161603 | 60 | 119 | 2.0 | 6.0 | 0.00 | 0.39 | 0.21 | 47 | 1003.1 |
| 20260507160032 | 60 | 254 | 2.0 | 6.0 | 0.00 | 0.39 | 0.21 | 45 | 1003.2 |
| 20260507154512 | 59 | 291 | 1.0 | 9.0 | 0.00 | 0.46 | 0.21 | 52 | 1003.3 |
| 20260507153029 | 59 | 301 | 1.0 | 5.0 | 0.00 | 0.46 | 0.21 | 56 | 1003.6 |
| 20260507151544 | 58 | 19 | 3.0 | 9.0 | 0.00 | 0.46 | 0.21 | 60 | 1003.6 |
| 20260507150013 | 57 | 298 | 2.0 | 8.0 | 0.00 | 0.46 | 0.21 | 62 | 1004.0 |
| 20260507144535 | 56 | 273 | 2.0 | 7.0 | 0.00 | 0.46 | 0.21 | 65 | 1004.0 |
| 20260507143049 | 55 | 307 | 2.0 | 8.0 | 0.00 | 0.46 | 0.21 | 67 | 1004.3 |
| 20260507141511 | 55 | 323 | 3.0 | 9.0 | 0.00 | 0.46 | 0.21 | 67 | 1004.4 |
| 20260507140032 | 55 | 304 | 1.0 | 5.0 | 0.00 | 0.46 | 0.21 | 70 | 1004.4 |
| 20260507134516 | 53 | 310 | 2.0 | 11.0 | 0.00 | 0.46 | 0.21 | 74 | 1004.5 |
| 20260507133031 | 53 | 307 | 0.0 | 5.0 | 0.00 | 0.46 | 0.21 | 78 | 1004.4 |
| 20260507131609 | 51 | 312 | 2.0 | 6.0 | 0.00 | 0.46 | 0.21 | 81 | 1004.4 |
| 20260507130002 | 51 | 297 | 1.0 | 8.0 | 0.00 | 0.46 | 0.21 | 84 | 1004.3 |
| 20260507124506 | 50 | 304 | 2.0 | 5.0 | 0.00 | 0.46 | 0.21 | 88 | 1004.4 |
| 20260507123038 | 50 | 315 | 3.0 | 8.0 | 0.00 | 0.46 | 0.21 | 92 | 1004.3 |
| 20260507121504 | 50 | 296 | 1.0 | 4.0 | 0.00 | 0.46 | 0.21 | 95 | 1004.2 |
| 20260507120018 | 50 | 306 | 2.0 | 7.0 | 0.00 | 0.46 | 0.21 | 96 | 1004.2 |
| 20260507114546 | 50 | 294 | 0.0 | 2.0 | 0.00 | 0.46 | 0.21 | 96 | 1004.1 |
| 20260507113001 | 50 | 294 | 0.0 | 3.0 | 0.00 | 0.46 | 0.21 | 96 | 1004.1 |
| 20260507111525 | 50 | 294 | 0.0 | 1.0 | 0.00 | 0.46 | 0.21 | 96 | 1003.8 |
| 20260507110107 | 49 | 294 | 0.0 | 0.0 | 0.00 | 0.46 | 0.21 | 96 | 1003.7 |
| 20260507104524 | 49 | 294 | 0.0 | 0.0 | 0.00 | 0.46 | 0.21 | 96 | 1003.3 |
| 20260507103052 | 49 | 294 | 0.0 | 0.0 | 0.00 | 0.46 | 0.21 | 96 | 1003.4 |
| 20260507101517 | 49 | 294 | 0.0 | 0.0 | 0.00 | 0.46 | 0.21 | 96 | 1003.0 |
| 20260507100028 | 49 | 294 | 0.0 | 0.0 | 0.00 | 0.46 | 0.21 | 96 | 1002.7 |
| 20260507094557 | 48 | 294 | 0.0 | 0.0 | 0.00 | 0.46 | 0.21 | 96 | 1002.6 |
| 20260507093002 | 48 | 294 | 0.0 | 0.0 | 0.00 | 0.46 | 0.21 | 96 | 1002.8 |
| 20260507091626 | 48 | 294 | 0.0 | 2.0 | 0.00 | 0.46 | 0.21 | 96 | 1002.6 |
| 20260507090014 | 49 | 294 | 0.0 | 1.0 | 0.02 | 0.46 | 0.21 | 96 | 1002.3 |
| 20260507084541 | 49 | 294 | 0.0 | 1.0 | 0.03 | 0.46 | 0.21 | 95 | 1002.4 |
| 20260507083003 | 48 | 294 | 0.0 | 1.0 | 0.05 | 0.46 | 0.21 | 95 | 1002.5 |
| 20260507081525 | 49 | 294 | 0.0 | 1.0 | 0.05 | 0.45 | 0.21 | 95 | 1002.4 |
| 20260507080044 | 49 | 294 | 0.0 | 1.0 | 0.05 | 0.44 | 0.19 | 95 | 1002.5 |
| 20260507074522 | 49 | 294 | 0.0 | 3.0 | 0.05 | 0.43 | 0.18 | 94 | 1002.8 |
| 20260507073029 | 49 | 275 | 0.0 | 3.0 | 0.04 | 0.41 | 0.16 | 94 | 1003.0 |
| 20260507071558 | 49 | 294 | 0.0 | 5.0 | 0.06 | 0.40 | 0.15 | 94 | 1003.1 |
| 20260507070014 | 50 | 310 | 2.0 | 8.0 | 0.07 | 0.39 | 0.14 | 94 | 1002.8 |
| 20260507064546 | 50 | 308 | 0.0 | 7.0 | 0.06 | 0.38 | 0.13 | 94 | 1002.9 |
| 20260507063006 | 50 | 315 | 2.0 | 7.0 | 0.06 | 0.37 | 0.12 | 94 | 1002.8 |
| 20260507061526 | 51 | 272 | 2.0 | 5.0 | 0.09 | 0.34 | 0.09 | 93 | 1002.8 |
| 20260507054517 | 52 | 294 | 1.0 | 7.0 | 0.07 | 0.32 | 0.07 | 92 | 1002.9 |
| 20260507053048 | 53 | 292 | 0.0 | 4.0 | 0.06 | 0.31 | 0.06 | 90 | 1002.1 |